Weather in Byrma

Russia / Perm Krai     57°14′40″N   56°17′58″E
temp.,
°C
wind,
m/s
gust,
m/s
humid.,
%
clouds,
%
prec.,
mm/h
press.,
hPa
HPBL,
m
28 february, sun
sun2823:00−17e51095100 0.8 1007454
02:00−16e4996100 0.3 1006411
05:00−16ene51095100 0.7 1006464
08:00−16ene51095100 0.4 1006457
11:00−14ene61094100 0.8 1007513
14:00−13ene5992100 0.3 1007568
17:00−12ne5993100 0.7 1008594
20:00−14ne4995100 0.4 1010451
1 march, mon
mon123:00−16ene4996100 0.6 1012368
02:00−17ne3896100 0.2 1013344
05:00−18ne3797100 0.3 1015255
08:00−18ne3798100 0.1 1016238
11:00−17ne2595100 0.1 1018293
14:00−13ne2289100 0.0 1017387
17:00−13ene1189100 0.1 1018362
20:00−18s1199100 0.0 101720
2 march, tue
tue223:00−18sw229998 0.1 101720
02:00−19sw239976 0.0 101555
05:00−20ssw3910082 0.0 1013230
08:00−19ssw51394100 0.0 1010346
11:00−17ssw51293100 0.0 1008351
14:00−14ssw61292100 0.3 1006443
17:00−13ssw51193100 0.6 1004512
20:00−13ssw51293100 0.5 1002576
3 march, wed
wed323:00−12ssw41093100 0.8 1002524
02:00−12s3995100 0.4 1000433
05:00−13sse2796100 0.7 999313
08:00−12sse1497100 0.8 998214
11:00−9s0192100 1.3 998233
14:00−6nnw1288100 0.1 997456
17:00−6nw2489100 0.2 998555
20:00−8w2296100 0.2 99956
4 march, thu
thu423:00−9nw4109294 0.3 1001340
02:00−12wnw249583 0.0 100287
05:00−13wnw369784 0.0 1003121
08:00−14w389594 0.0 1004159
11:00−10w479175 0.1 1004396
14:00−8w478986 0.0 1004615
17:00−8wsw488893 0.1 1004772
20:00−9ssw51291100 0.1 1002535